THOR ABLESTAR R/B, 1508

Orbit data source: Space-Track

THOR ABLESTAR R/B, 1508 is space debris in LEO originally from a launch on Fri, 13 Aug 1965 UTC launched from the Air Force Western Test Range (AFWTR). Debris objects in space refer to the collection of defunct objects orbiting the Earth. Examples of debris include non-operational satellites, rocket bodies, and fragments generated from explosions, collisions, or faulty payload assembly.

Loading next visibility...
Identifier
1508, 1965-065B
Orbit
LEO
Country
Flag of USUS
Related business
Manufacturer
Aerojet
Mission
Spacecraft
Bus & Motor
ABLESTAR, Unknown motor
Mass
~600 kg wet, 600 kg dry
Launch date (UTC)
1965-08-13 (60 years ago)
Launch vehicle
Unknown
Launch site
Air Force Western Test Range (AFWTR)
Object type
Payload
Rocket body
Debris
Shape & HBR
Unknown
Radar Cross Section
Large (>1 m²)

Expand to show TLE details & history
Last TLE update: 7 hours ago

TLE from 7 hours ago
0 THOR ABLESTAR R/B
1 01508U 65065B   25354.87540476  .00000023  00000-0  26186-4 0  9998
2 01508  90.1403 305.3356 0043748 113.9814 260.2083 13.36085004941602
Epoch: 2025-12-20T21:00Z
TLE epoch observation values (Epoch: 2025-12-20T21:00:34.971Z)
Latitude
13.66243°
Longitude
-99.53997°
Altitude
1,131.819 km
Speed
7.285 km/s
True Right ascension
20h 21m 12s
True Declination
13° 35' 15"
Sunlit
Object was in daylight at epoch
Visualization orbit readout
Latitude
Unknown
Longitude
Unknown
Altitude
Unknown
Speed
Unknown
Apparent Right ascension
Unknown
Apparent Declination
Unknown
Sunlit
N/A
Visualization observer readout
Local Sidereal Time
03:20:33
Azimuth
Unknown
Elevation
Unknown
Doppler factor
Unknown
Orbital elements
Apogee altitude
1,153.776 km
Perigee altitude
1,088.162 km
Semi-major axis
7,499.106 km
Eccentricity
0.00437
Inclination
90.1403°
RAAN
305.3356°
Arg. of periapsis
113.9814°
True anomaly
259.71475°
Mean anomaly
260.2083°
Eccentric anomaly
259.96148°
Mean motion
3.34217 °/min
Orbital period
107.71 mins
BSTAR
0.000026186
Loading maneuver chart data...
Computing Atmospheric mass density...
Loading historical data...
Loading historical data...
Loading historical data...
Loading historical data...
Loading historical data...
Loading historical data...
Loading historical data...

Documentation

Showing up to 5 results
|